www.pogodaiklimat.ru

Погода и климат >> Архив погоды >> Австралия >> Северная территория >> Виктория-Ривер


ПОГОДА в Виктория-Ривер

  • Прогноз погоды в Виктория-Ривер
  • Монитор погоды в Виктория-Ривер

АРХИВ ПОГОДЫ в Виктория-Ривер

Время (UTC), дата Ветер
(напр.,м/с)
 
Видим.   Явления Облачность Т
(С)
Тd
(С)
f
(%)
Тe
(С)
Тes
(С)
Комфортность P
(гПа)
Po
(гПа)
Тmin
(С)
Tmax
(С)
R
(мм)
R24
(мм)
S
(см)
17 14.05 Ю 2 н/о н/о +19.7 +5.0 38 +21 +21 комфорт 1015.0 1004.7
20 14.05 З 2 н/о н/о +16.2 +3.9 44 +16 +16 1015.9 1005.5
23 14.05 ЮВ 3 29 км ясно +24.0 +7.2 34 +24 +26 комфорт 1017.8 1007.4
02 15.05 ЮВ 3 н/о н/о +30.7 +8.4 25 +30 +30 жарко 1015.6 1005.2 +15.8
05 15.05 ЮВ 4 н/о н/о +33.2 +6.5 19 +31 +31 жарко 1012.2 1001.9
08 15.05 ЮВ 3 н/о н/о +32.5 +3.5 16 +30 +30 жарко 1012.2 1001.9
11 15.05 Ю 2 н/о н/о +24.6 +8.1 35 +25 +25 комфорт 1014.2 1003.9
14 15.05 Ю 2 н/о н/о +20.4 +4.8 36 +22 +22 комфорт 1014.1 1003.8 +34.3
17 15.05 Ю 1 н/о н/о +18.5 +6.4 45 +20 +20 1013.0 1002.7
20 15.05 штиль 0 н/о н/о +18.2 +6.4 46 +18 +18 1012.9 1002.6
23 15.05 ЮВ 2 н/о н/о +26.5 +10.6 37 +27 +27 жарко 1014.3 1004.0
02 16.05 В 3 н/о н/о +32.7 +12.3 29 +33 +33 жарко 1013.0 1002.7 +17.9
05 16.05 В 4 н/о н/о +35.7 +13.2 26 +36 +36 очень
жарко
1009.8 999.5
08 16.05 В 3 н/о н/о +34.3 +12.0 26 +34 +34 очень
жарко
1010.0 999.7
11 16.05 штиль 0 н/о н/о +27.3 +11.7 38 +28 +28 жарко 1012.1 1001.8
14 16.05 штиль 0 н/о н/о +24.9 +11.5 43 +26 +26 жарко 1011.7 1001.4 +36.9
17 16.05 СВ 3 н/о н/о +24.6 +12.9 48 +27 +27 жарко 1011.5 1001.2
20 16.05 штиль 0 н/о н/о +22.0 +15.1 65 +26 +26 душно 1012.1 1001.8
23 16.05 СВ 6 29 км 3/1
[Cu med, cong Ci fib]
+28.2 +18.3 55 +33 +34 очень
душно
1013.7 1003.4
02 17.05 В 5 н/о н/о +33.1 +15.1 34 +35 +35 душно 1012.4 1002.1 +21.6
05 17.05 В 5 н/о н/о +35.7 +14.9 29 +37 +37 душно 1009.7 999.4
08 17.05 В 4 н/о н/о +35.1 +13.8 28 +36 +36 очень
жарко
1009.5 999.2
11 17.05 СВ 1 н/о н/о +28.9 +15.1 43 +31 +31 жарко 1011.6 1001.3
14 17.05 СВ 5 н/о н/о +29.2 +16.7 47 +33 +33 очень
душно
1012.8 1002.5 +37.3
17 17.05 СВ 2 н/о н/о +26.3 +17.4 58 +30 +30 душно 1012.9 1002.6
20 17.05 СВ 1 н/о н/о +22.9 +17.8 73 +28 +28 душно 1012.8 1002.5
23 17.05 СВ 4 30 км 1/0
[Cc]
+28.2 +18.6 56 +33 +34 очень
душно
1014.8 1004.5
02 18.05 СВ 4 н/о н/о +32.5 +17.5 41 +36 +36 очень
душно
1013.9 1003.6 +22.2
05 18.05 В 4 н/о н/о +33.5 +17.2 38 +37 +37 очень
душно
1011.0 1000.7
08 18.05 СВ 8 н/о н/о +31.0 +16.6 42 +34 +34 душно 1011.6 1001.3
11 18.05 В 3 н/о н/о +29.0 +18.4 53 +34 +34 очень
душно
1013.7 1003.4
14 18.05 ЮВ 3 н/о н/о +28.7 +17.9 52 +33 +33 очень
душно
1013.8 1003.5 +35.2
17 18.05 С 2 н/о н/о +26.1 +18.0 61 +31 +31 очень
душно
1013.5 1003.2
20 18.05 ЮВ 3 н/о н/о +25.8 +19.4 68 +31 +31 очень
душно
1014.5 1004.2
23 18.05 ЮВ 4 30 км 8/0
[Ac trans Cc]
+28.0 +19.2 59 +34 +35 очень
душно
1016.2 1005.8
02 19.05 ЮВ 4 н/о н/о +32.3 +16.6 39 +35 +35 очень
душно
1015.6 1005.2 +24.4
05 19.05 ЮВ 3 н/о н/о +33.3 +16.6 37 +36 +36 очень
душно
1012.7 1002.4
08 19.05 Ю 4 н/о н/о +32.2 +16.5 39 +35 +35 очень
душно
1012.9 1002.6
11 19.05 Ю 4 н/о н/о +27.8 +17.9 55 +32 +32 душно 1015.5 1005.1
14 19.05 Ю 3 н/о н/о +26.0 +16.3 55 +29 +29 душно 1015.4 1005.0 +34.6
17 19.05 Ю 2 н/о н/о +24.0 +16.3 62 +27 +27 жарко 1014.6 1004.3
20 19.05 Ю 1 н/о н/о +22.1 +16.4 70 +26 +26 душно 1015.4 1005.0
23 19.05 Ю 3 н/о н/о +25.8 +16.9 58 +30 +30 душно 1016.8 1006.4
02 20.05 ЮВ 4 н/о н/о +32.8 +15.3 35 +35 +35 душно 1015.6 1005.2 +21.2
05 20.05 В 5 н/о н/о +35.2 +13.9 28 +36 +36 очень
жарко
1011.9 1001.6
08 20.05 В 3 н/о н/о +34.4 +13.3 28 +35 +35 очень
жарко
1012.1 1001.8
11 20.05 В 2 н/о н/о +28.5 +14.0 41 +30 +30 жарко 1014.0 1003.7
14 20.05 ЮВ 2 н/о н/о +25.7 +15.4 53 +29 +29 душно 1014.6 1004.3 +36.7
17 20.05 В 5 н/о н/о +28.8 +10.0 31 +29 +29 жарко 1014.1 1003.8
20 20.05 ЮВ 2 н/о н/о +24.8 +10.3 40 +26 +26 жарко 1014.9 1004.6
23 20.05 В 4 н/о н/о +27.5 +9.3 32 +28 +28 жарко 1016.7 1006.3
02 21.05 СВ 4 н/о н/о +31.7 +11.0 28 +32 +32 жарко 1015.8 1005.4 +21.8
05 21.05 В 4 н/о н/о +35.8 +10.8 22 +35 +35 очень
жарко
1012.1 1001.8

 

Местоположение метеостанции Виктория-Ривер (Северная территория, Австралия): широта -16.40 долгота 131.02 высота над уровнем моря 90 м.

В архиве по умолчанию представлена погода в Виктория-Ривер за последнюю неделю. Архивные данные за месяц целиком и за предыдущие месяцы, начиная с января 2011 года, Вы можете получить, выбрав интересующий диапазон дат из раскрывающегося списка и нажав кнопку "Ввод!".


*Определитесь, кто Вы:
робот инопланетянин человек

Внимание! Время в таблицах - всемирное. Для получения местного времени необходимо прибавить поправку, которая равна 9.5 ч.

Смотрите также архив погоды в соседних городах и на ближайших метеорологических станциях:

Погода на Базе ВВС Delamere Weapons Range (Северная территория, Австралия) (120 км)
Погода в Манбуллу Ксиро (Северная территория, Австралия) (163 км)
Погода в Ладжаману (Северная территория, Австралия) (219 км)
Погода в Дейли Уотерс (Северная территория, Австралия) (251 км)
Погода в Тиндале (Северная территория, Австралия) (255 км)
Погода в Кунунарре (Западная Австралия, Австралия) (256 км)
Погода в Аэропорту Аргайл (Западная Австралия, Австралия) (275 км)
Погода на Маяке Кейп-Дон (Северная территория, Австралия) (286 км)
Погода в Порт Китс (Северная территория, Австралия) (288 км)
Погода в Уиндеме (Западная Австралия, Австралия) (323 км)

Пояснения к столбцам:

Ветер - указаны скорость ветра в м/с - средняя за 10 мин, порывы в срок и между сроками (в фигурных скобках) и направление, откуда дует ветер: С - северный, СВ - северо-восточный, В - восточный, ЮВ - юго-восточный, Ю - южный, ЮЗ - юго-западный, З - западный, СЗ - северо-западный.
Видимость - горизонтальная дальность видимости в метрах или километрах. При видимости от 1 до 10 км при отсутствии осадков обычно наблюдается дымка, при ухудшении видимости до 1 км и менее - туман. В сухую погоду видимость может ухудшаться дымом, пылью или мглою.
Явления - указаны атмосферные явления, наблюдавшиеся в срок или в последний час перед сроком; фигурными скобками обозначены явления, наблюдавшиеся между сроками (за 1-3 часа до срока); квадратными скобками обозначены град или гололедные отложения с указанием их диаметра в мм.
Облачность - указаны через наклонную черту общая и нижняя облачность в баллах и высота нижней границы облаков в метрах; квадратными скобками обозначены формы облаков: Ci - перистые, Cs - перисто-слоистые, Cc - перисто-кучевые, Ac - высококучевые, As - высокослоистые, Sc - слоисто-кучевые, Ns - слоисто-дождевые, Cu - кучевые, Cb - кучево-дождевые. Подробнее классификацию облаков см. в Атласе облаков (PDF).
T - Температура воздуха - температура, измеренная на высоте 2 м над землей.
Td - Температура точки росы - температура, при понижении до которой содержащийся в воздухе водяной пар достигнет насыщения.
f - Относительная влажность воздуха - влажноcть воздуха, измеренная на высоте 2 м над землей.
Te - Эффективная температура - температура, которую ощущает одетый по сезону человек в тени. Характеристика душности погоды. При расчете учитывается влияние влажности воздуха и скорости ветра на теплоощущения человека.
Tes - Эффективная температура на солнце - температура, которую ощущает человек, с поправкой на солнечный нагрев. Характеристика знойности погоды. Зависит от высоты солнца над горизонтом, облачности и скорости ветра. Ночью, в пасмурную погоду, а также при ветре 12 м/с и более поправка равна нулю.
P - Атмосферное давление - приведенное к уровню моря атмосферное давление.
Po - Атмосферное давление - измеренное на уровне метеостанции атмосферное давление.
Tmin - Минимальная температура - минимум температуры воздуха на высоте 2 м над землей.
Tmax - Максимальная температура - максимум температуры воздуха на высоте 2 м над землей.
R - Количество осадков - Количество выпавших осадков за период времени, мм. При наведении курсора мыши на число - период времени, за который выпало указанное количество осадков.
R24 - Количество осадков - Количество выпавших осадков за 24 часа, мм.
S - Снежный покров - Высота снежного покрова, см. При наведении курсора мыши на число - состояние снежного покрова и степень покрытия местности в баллах.